Voltar ao catálogo

COSMOS 2254

AtivoMilitarPO
NORAD 22689·PAYLOAD·🇷🇺 Russia

Lançado Jun 24, 1993 de Plesetsk Cosmodrome

Loading…

Próximas Passagens (próximas 24 horas)

TLE

AtualizadoSource: Space-Track

Época: Sep 14, 2026, 04:18 UTC

1 22689U 93038C   26257.17973580  .00000042  00000-0  16641-3 0  9999
2 22689  82.5834 147.0650 0012746 103.7975  62.8298 12.64915170533387

Acompanhe COSMOS 2254 em tempo real com AllMySat

Download on the App Store